Location: Köln
(50.9375°N, 6.9603°E)
Time: 19:08:25
(UTC+01:00)

ISS - Pass Details

Date: 14 November 2025
Orbit: 414 x 421 km, 51.6° (Epoch: 07 November)

Event Time Altitude Azimuth Distance (km) Brightness Sun altitude
Rises 18:56:00 0° 222° (SW) 2,341 0.7 -20.3°
Reaches altitude 10° 18:58:13 10° 211° (SSW) 1,482 -0.5 -20.7°
Enters shadow 19:00:07 24° 183° (S) 897 -2.1 -21.0°
